LOT489 EPWA-ENZV

Flight info

Callsign LOT489
Flight time N/A
Altitude 34000
Route OLILA L621 SOMOR DCT LUSID DCT MADAG DCT RIVEX
Aircraft B738/M-SDE2E3FGHIRWXY/LB1

Departure

Time 2026-05-06 16:36
Airport Warsaw Chopin Airport (EPWA)

Arrival

Time N/A
Airport Stavanger Airport, Sola (ENZV)
Time Latitude Longitude Altitude Speed Heading
2026-05-06 15:56 52.17385 20.96510 338 ft 0 kts 207°
2026-05-06 16:29 52.17384 20.96509 338 ft 1 kts 207°
2026-05-06 16:29 52.17360 20.96480 335 ft 8 kts 221°
2026-05-06 16:29 52.17305 20.96472 335 ft 9 kts 153°
2026-05-06 16:29 52.17244 20.96527 338 ft 12 kts 151°
2026-05-06 16:30 52.17155 20.96606 336 ft 17 kts 151°
2026-05-06 16:30 52.17077 20.96674 336 ft 20 kts 152°
2026-05-06 16:30 52.16915 20.96811 336 ft 19 kts 151°
2026-05-06 16:30 52.16801 20.96912 337 ft 16 kts 152°
2026-05-06 16:31 52.16705 20.96994 337 ft 15 kts 153°
2026-05-06 16:31 52.16644 20.97124 335 ft 15 kts 112°
2026-05-06 16:31 52.16603 20.97272 337 ft 14 kts 117°
2026-05-06 16:31 52.16562 20.97412 338 ft 13 kts 114°
2026-05-06 16:32 52.16526 20.97548 336 ft 13 kts 114°
2026-05-06 16:32 52.16491 20.97677 337 ft 12 kts 114°
2026-05-06 16:32 52.16459 20.97787 338 ft 9 kts 123°
2026-05-06 16:32 52.16403 20.97795 336 ft 8 kts 203°
2026-05-06 16:33 52.16385 20.97781 336 ft 0 kts 205°
2026-05-06 16:34 52.16349 20.97755 338 ft 7 kts 203°
2026-05-06 16:34 52.16311 20.97722 336 ft 4 kts 235°
2026-05-06 16:34 52.16305 20.97681 335 ft 4 kts 273°
2026-05-06 16:34 52.16312 20.97650 336 ft 0 kts 295°
2026-05-06 16:35 52.16320 20.97622 336 ft 19 kts 295°
2026-05-06 16:35 52.16487 20.97022 336 ft 95 kts 294°
2026-05-06 16:35 52.16843 20.95702 349 ft 157 kts 288°
2026-05-06 16:36 52.17261 20.94016 1046 ft 162 kts 292°
2026-05-06 16:36 52.17741 20.92374 1867 ft 166 kts 290°
2026-05-06 16:36 52.18302 20.90682 2560 ft 178 kts 304°
2026-05-06 16:36 52.19370 20.89551 3323 ft 186 kts 333°
2026-05-06 16:37 52.20537 20.88752 4153 ft 187 kts 331°
2026-05-06 16:37 52.21848 20.87826 4340 ft 218 kts 331°
2026-05-06 16:37 52.23145 20.86406 4590 ft 234 kts 312°
2026-05-06 16:37 52.24248 20.84343 4962 ft 249 kts 305°
2026-05-06 16:38 52.25410 20.82101 5274 ft 274 kts 308°
2026-05-06 16:38 52.26788 20.79945 6241 ft 273 kts 323°
2026-05-06 16:38 52.28577 20.78860 7154 ft 283 kts 347°
2026-05-06 16:38 52.30551 20.78459 7931 ft 289 kts 349°
2026-05-06 16:39 52.32555 20.78022 8733 ft 291 kts 346°
2026-05-06 16:39 52.34568 20.77465 9557 ft 295 kts 347°
2026-05-06 16:39 52.36665 20.77386 10200 ft 310 kts 359°
2026-05-06 16:39 52.38912 20.77717 10407 ft 337 kts
2026-05-06 16:40 52.41295 20.78114 10600 ft 359 kts
2026-05-06 16:40 52.43829 20.78479 11059 ft 371 kts
2026-05-06 16:40 52.46419 20.78787 11722 ft 374 kts 358°
2026-05-06 16:40 52.48960 20.78112 12415 ft 368 kts 334°
2026-05-06 16:41 52.51135 20.76009 13173 ft 362 kts 315°
2026-05-06 16:41 52.52813 20.72972 13842 ft 359 kts 302°
2026-05-06 16:41 52.54279 20.69637 14487 ft 361 kts 301°
2026-05-06 16:41 52.55730 20.66258 15140 ft 364 kts 301°
2026-05-06 16:42 52.57213 20.62845 15779 ft 368 kts 301°
2026-05-06 16:42 52.58720 20.59424 16438 ft 371 kts 301°
2026-05-06 16:42 52.60246 20.55982 17091 ft 374 kts 301°
2026-05-06 16:42 52.61784 20.52500 17718 ft 377 kts 301°
2026-05-06 16:43 52.63328 20.48987 18287 ft 380 kts 301°
2026-05-06 16:43 52.64887 20.45432 18832 ft 384 kts 301°
2026-05-06 16:43 52.66454 20.41850 19381 ft 387 kts 301°
2026-05-06 16:43 52.68036 20.38235 19902 ft 390 kts 301°
2026-05-06 16:44 52.69610 20.34634 20412 ft 393 kts 301°
2026-05-06 16:44 52.71264 20.30997 20922 ft 399 kts 305°
2026-05-06 16:44 52.73120 20.27545 21418 ft 404 kts 308°
2026-05-06 16:44 52.75055 20.24151 21908 ft 408 kts 308°
2026-05-06 16:45 52.77007 20.20707 22374 ft 411 kts 308°
2026-05-06 16:45 52.78942 20.17210 22827 ft 414 kts 307°
2026-05-06 16:45 52.80877 20.13666 23322 ft 416 kts 307°
2026-05-06 16:45 52.82782 20.10043 23731 ft 418 kts 305°
2026-05-06 16:46 52.84630 20.06390 24152 ft 419 kts 304°
2026-05-06 16:46 52.86492 20.02657 24575 ft 420 kts 304°
2026-05-06 16:46 52.88353 19.98916 24981 ft 422 kts 304°
2026-05-06 16:46 52.90233 19.95147 25376 ft 424 kts 304°
2026-05-06 16:47 52.92123 19.91364 25759 ft 426 kts 304°
2026-05-06 16:47 52.94002 19.87605 26094 ft 429 kts 304°
2026-05-06 16:47 52.95932 19.83745 26454 ft 431 kts 304°
2026-05-06 16:47 52.97824 19.79957 26822 ft 432 kts 304°
2026-05-06 16:48 52.99746 19.76103 27165 ft 434 kts 303°
2026-05-06 16:48 53.01675 19.72227 27525 ft 435 kts 303°
2026-05-06 16:48 53.03619 19.68317 27866 ft 437 kts 303°
2026-05-06 16:48 53.05558 19.64416 28270 ft 438 kts 303°
2026-05-06 16:49 53.07559 19.60640 28626 ft 442 kts 307°
2026-05-06 16:49 53.09708 19.56961 29016 ft 443 kts 308°
2026-05-06 16:49 53.11893 19.53338 29490 ft 442 kts 308°
2026-05-06 16:49 53.14062 19.49740 29961 ft 439 kts 308°
2026-05-06 16:50 53.16204 19.46136 30414 ft 435 kts 307°
2026-05-06 16:50 53.18317 19.42540 30828 ft 433 kts 307°
2026-05-06 16:50 53.20411 19.38953 31167 ft 432 kts 307°
2026-05-06 16:50 53.22508 19.35337 31555 ft 431 kts 306°
2026-05-06 16:51 53.24430 19.31531 32008 ft 425 kts 301°
2026-05-06 16:51 53.26216 19.27622 32560 ft 420 kts 299°
2026-05-06 16:51 53.27948 19.23711 33071 ft 416 kts 299°
2026-05-06 16:51 53.29638 19.19855 33389 ft 417 kts 299°
2026-05-06 16:52 53.31355 19.15941 33623 ft 418 kts 299°
2026-05-06 16:52 53.33085 19.12012 33762 ft 421 kts 299°
2026-05-06 16:52 53.34832 19.08063 33756 ft 423 kts 299°
2026-05-06 16:53 53.38344 19.00164 33749 ft 419 kts 299°
2026-05-06 16:53 53.41815 18.92364 33761 ft 416 kts 299°
2026-05-06 16:54 53.45252 18.84608 33771 ft 417 kts 299°